sat.trackr.live / text

‹ back to catalog

STARLINK-1928

NORAD 46758 · 2020-074V

PAYLOAD ACTIVE UNKNOWN

§ Identity

Operator
Country
US
Launch date
2020-10-24
Launch site
AFETR
Launch vehicle
Mass (kg)
RCS (m²)

Purposes: comms

External: N2YO · Heavens-Above · Gunter

§ Orbital elements

Epoch: 2026-06-25T01:52:02.845344Z

Period
87.74 min
Inclination
53.0193°
Eccentricity
0.0007931
Mean motion
16.41271005 rev/d
Perigee alt
157.2 km
Apogee alt
167.6 km
Semi-major
6,540.6 km
B*
4.9748e-4
RAAN
102.9547°
Arg perigee
247.7817°
Mean anomaly
112.2389°
Rev number
31,421

§ Raw data

STARLINK-19281 46758U 20074V   26176.07781071  .08116360  12348-4  49748-3 0  99982 46758  53.0193 102.9547 0007931 247.7817 112.2389 16.41271005314211

JSON: /api/v1/satellites/46758 · /tle

For live sub-satellite position, see the globe view (requires WebGL).

§ Visibility from observer

Set your observer location to see the next 7 days of passes ≥ 10°. The values pass through the URL so the page stays shareable.

No JS? Fill the form by hand. The geolocation button needs JavaScript.